Showing default

COSMOS 2510, 41032

Orbit data source: Space-Track

COSMOS 2510, 41032 is a payload satellite owned by VVKO VKS (CIS) that was launched on Tue, 17 Nov 2015 UTC via a SOYUZ-2-1B launch vehicle from the Plesetsk Missile And Space Complex (PKMTR). Payload-class satellites include a variety of spacecraft equipped with specific instruments for various scientific and technological missions. These include communications satellites like Starlink; space stations such as the ISS; scientific satellites like the Hubble; Earth observation satellites from companies like Planet Labs, Umbra, and HawkEye 360; GPS; miniature CubeSats for education and research; and military/defense satellites.

Loading next visibility...
Identifier
41032, 2015-066A
Orbit
Molniya
Country
Flag of CISCIS
Related business
Manufacturer
RKKE/KOMET
Mission
Operational Defense Early Warn
Bus & Motor
14F142 EKS, Unknown motor
Mass
~2,550 kg wet, ~2,000 kg dry
Launch date (UTC)
2015-11-17 (11 years ago)
Launch vehicle
SOYUZ-2-1B
Launch site
Plesetsk Missile And Space Complex (PKMTR)
Object type
Payload
Rocket body
Debris
Shape & HBR
Box + 2 Pan, 5.0 m
Radar Cross Section
14.304 m², Large (>1 m²)

Expand to show TLE details & history
Last TLE update: 3 days ago

TLE from 3 days ago
0 COSMOS 2510
1 41032U 15066A   26170.92413988 -.00001690  00000-0  00000+0 0  9994
2 41032  63.4889 345.7708 7201581 274.6789  13.7946  2.00895684 77524
Epoch: 2026-06-19T22:10Z
TLE epoch observation values (Epoch: 2026-06-19T22:10:45.685Z)
Latitude
0.00024°
Longitude
104.90887°
Altitude
5,670.521 km
Speed
7.152 km/s
True Right ascension
23h 02m 58s
True Declination
0° 00' 01"
Sunlit
Object was in daylight at epoch
Visualization orbit readout
Latitude
Unknown
Longitude
Unknown
Altitude
Unknown
Speed
Unknown
Apparent Right ascension
Unknown
Apparent Declination
Unknown
Sunlit
N/A
Visualization observer readout
Local Sidereal Time
21:33:31
Azimuth
Unknown
Elevation
Unknown
Doppler factor
Unknown
Orbital elements
Apogee altitude
39,257.807 km
Perigee altitude
1,046.093 km
Semi-major axis
26,530.087 km
Eccentricity
0.72016
Inclination
63.4889°
RAAN
345.7708°
Arg. of periapsis
274.6789°
True anomaly
85.207°
Mean anomaly
13.7946°
Eccentric anomaly
40.7033°
Mean motion
0.50227 °/min
Orbital period
716.75 mins
BSTAR
0
Loading maneuver chart data...
Computing Atmospheric mass density...
Loading historical data...
Loading historical data...
Loading historical data...
Loading historical data...
Loading historical data...
Loading historical data...
Loading historical data...
Other satellites on launch #66 in the year 2015 (2015-11-17 UTC)

Documentation

Showing up to 5 results
|